Weather History for Laramie, WY

Change the Weather History Date:

Saturday, July 6, 2013

  Actual Average Record
Temperature  
Mean Temperature 68 °F 63 °F  
Max Temperature 82 °F 79 °F 92 °F (1985)
Min Temperature 53 °F 47 °F 37 °F (1993)
Degree Days  
Heating Degree Days 0 3  
Month to date heating degree days 6 20  
Since 1 June heating degree days 109 261  
Since 1 July heating degree days 6 20  
Cooling Degree Days 3 1  
Month to date cooling degree days 9 6  
Year to date cooling degree days 45 13  
Since 1 June cooling degree days 45 13  
Growing Degree Days 18 (Base 50)    
Moisture  
Dew Point 43 °F    
Average Humidity 55    
Maximum Humidity 93    
Minimum Humidity 17    
Precipitation  
Precipitation 0.01 in 0.04 in 0.54 in (1952)
Month to date precipitation 0.12 0.23  
Year to date precipitation 3.53 5.72  
Sea Level Pressure  
Sea Level Pressure 29.79 in    
Wind  
Wind Speed 12 mph (WNW)    
Max Wind Speed 26 mph    
Max Gust Speed 33 mph    
Visibility 10 miles    
Events Rain , Thunderstorm    
T = Trace of Precipitation, MM = Missing Value Source: NWS Daily Summary

Daily Weather History Graph

Daily Weather History Graph

Search for Another Location

Airport:

Trip Planner

Search our weather history database for the weather conditions in past years. The results will help you decide how hot, cold, wet, or windy it might be!

Date:

Astronomy

Jul. 06, 2013 Rise Set
Actual Time 5:36 AM MDT 8:38 PM MDT
Civil Twilight 5:02 AM MDT 9:11 PM MDT
Nautical Twilight 4:20 AM MDT 9:54 PM MDT
Astronomical Twilight 3:30 AM MDT 10:44 PM MDT
Moon 4:24 AM MDT (7/6) 7:21 PM MDT (7/6)
Length of Visible Light 16h 09m
Length of Day
15h 02m
Waning Crescent, 2% of the Moon is Illuminated
Jul 6
Waning Crescent
Jul 8
New
Jul 15
First Quarter
Jul 22
Full
Jul 29
Last Quarter

Hourly Weather History & Observations

Time (MDT) Temp. Dew Point Humidity Pressure Visibility Wind Dir Wind Speed Gust Speed Precip Events Conditions
12:53 AM 60.1 °F 51.1 °F 72% 29.75 in 10.0 mi NNW 11.5 mph - N/A Thunderstorm Mostly Cloudy
1:29 AM 55.4 °F 51.8 °F 88% 30.08 in 10.0 mi ENE 11.5 mph - 0.01 in Rain Light Rain
1:53 AM 54.0 °F 52.0 °F 93% 29.72 in 10.0 mi ENE 8.1 mph - 0.01 in   Partly Cloudy
2:53 AM 54.0 °F 51.1 °F 90% 29.76 in 10.0 mi SSW 6.9 mph - N/A   Mostly Cloudy
3:53 AM 55.9 °F 51.1 °F 84% 29.80 in 10.0 mi SW 6.9 mph - N/A   Overcast
4:53 AM 57.0 °F 48.0 °F 72% 29.80 in 10.0 mi SW 15.0 mph - N/A   Clear
5:53 AM 55.9 °F 48.0 °F 75% 29.79 in 10.0 mi SW 13.8 mph - N/A   Clear
6:53 AM 55.9 °F 46.9 °F 72% 29.80 in 10.0 mi WSW 12.7 mph - N/A   Clear
7:53 AM 64.9 °F 46.9 °F 52% 29.79 in 10.0 mi WSW 13.8 mph - N/A   Clear
8:53 AM 70.0 °F 44.1 °F 39% 29.79 in 10.0 mi West 15.0 mph - N/A   Clear
9:53 AM 73.0 °F 42.1 °F 33% 29.80 in 10.0 mi West 16.1 mph - N/A   Clear
10:53 AM 77.0 °F 41.0 °F 28% 29.79 in 10.0 mi West 13.8 mph 21.9 mph N/A   Clear
11:53 AM 78.1 °F 39.0 °F 25% 29.78 in 10.0 mi NW 21.9 mph 27.6 mph N/A   Clear
12:53 PM 81.0 °F 32.0 °F 17% 29.77 in 10.0 mi NNW 18.4 mph 29.9 mph N/A   Clear
1:53 PM 79.0 °F 32.0 °F 18% 29.81 in 10.0 mi WNW 17.3 mph 25.3 mph N/A   Partly Cloudy
2:53 PM 79.0 °F 37.0 °F 22% 29.81 in 10.0 mi NNW 15.0 mph 20.7 mph N/A   Clear
3:53 PM 82.0 °F 36.0 °F 19% 29.77 in 10.0 mi NNW 12.7 mph 27.6 mph N/A   Clear
4:53 PM 81.0 °F 35.1 °F 19% 29.76 in 10.0 mi North 11.5 mph 16.1 mph N/A   Scattered Clouds
5:53 PM 81.0 °F 35.1 °F 19% 29.75 in 10.0 mi NNW 9.2 mph - N/A   Clear
6:53 PM 80.1 °F 35.1 °F 20% 29.75 in 10.0 mi NNW 3.5 mph - N/A   Clear
7:53 PM 78.1 °F 35.1 °F 21% 29.73 in 10.0 mi Calm Calm - N/A   Scattered Clouds
8:53 PM 72.0 °F 46.0 °F 40% 29.75 in 10.0 mi ESE 12.7 mph - N/A   Clear
9:53 PM 64.9 °F 45.0 °F 48% 29.78 in 10.0 mi SE 10.4 mph - N/A   Clear
10:53 PM 64.0 °F 45.0 °F 50% 29.77 in 10.0 mi SSE 8.1 mph - N/A   Partly Cloudy
11:53 PM 64.0 °F 46.0 °F 52% 29.77 in 10.0 mi SSW 8.1 mph - N/A   Partly Cloudy